Keene, NH

7:14 AM EDT on July 21, 2017 (GMT -0400)
Dillant-Hopkins

Weather History for KEEN - November, 2012

Change the Weather History Date:

Monday, November 5, 2012

  Actual Average Record
Temperature  
Mean Temperature 32 °F -  
Max Temperature 39 °F 54 °F 74 °F (1994)
Min Temperature 24 °F 33 °F 13 °F (1952)
Degree Days  
Heating Degree Days 34    
Moisture  
Dew Point 19 °F    
Average Humidity 56    
Maximum Humidity 80    
Minimum Humidity 38    
Precipitation  
Precipitation 0.15 in - - ()
Sea Level Pressure  
Sea Level Pressure 30.02 in    
Wind  
Wind Speed 7 mph (NNW)    
Max Wind Speed 15 mph    
Max Gust Speed 21 mph    
Visibility 10 miles    
Events      
Averages and records for this station are not official NWS values.
T = Trace of Precipitation, MM = Missing Value Source: NWS Daily Summary

Daily Weather History Graph

Daily Weather History Graph

Search for Another Location

Airport or City:

Trip Planner

Search our weather history database for the weather conditions in past years. The results will help you decide how hot, cold, wet, or windy it might be!

Date:

Astronomy

Nov. 05, 2012 Rise Set
Actual Time 6:29 AM EST 4:35 PM EST
Civil Twilight 5:59 AM EST 5:05 PM EST
Nautical Twilight 5:25 AM EST 5:39 PM EST
Astronomical Twilight 4:52 AM EST 6:12 PM EST
Moon 10:10 PM EST (11/5) 11:47 AM EST (11/5)
Length of Visible Light 11h 06m
Length of Day
10h 06m
Waning Gibbous, 63% of the Moon is Illuminated
Nov 5
Waning Gibbous
Nov 6
Last Quarter
Nov 13
New
Nov 20
First Quarter
Nov 28
Full

Hourly Weather History & Observations

Time (EST) Temp. Windchill Dew Point Humidity Pressure Visibility Wind Dir Wind Speed Gust Speed Precip Events Conditions
12:15 AM 35.6 °F 28.6 °F 24.8 °F 65% 29.95 in 10.0 mi North 9.2 mph - N/A   Overcast
12:35 AM 35.6 °F 28.0 °F 23.0 °F 60% 29.95 in 10.0 mi North 10.4 mph - N/A   Overcast
12:55 AM 35.6 °F 28.6 °F 23.0 °F 60% 29.96 in 10.0 mi North 9.2 mph - N/A   Overcast
1:15 AM 35.6 °F 28.6 °F 21.2 °F 56% 29.96 in 10.0 mi North 9.2 mph - N/A   Overcast
1:35 AM 35.6 °F 27.1 °F 21.2 °F 56% 29.96 in 10.0 mi NNE 12.7 mph 16.1 mph N/A   Overcast
1:55 AM 35.6 °F 28.6 °F 21.2 °F 56% 29.96 in 10.0 mi North 9.2 mph - N/A   Overcast
2:15 AM 35.6 °F 28.0 °F 21.2 °F 56% 29.96 in 10.0 mi North 10.4 mph - N/A   Overcast
2:35 AM 35.6 °F 27.1 °F 21.2 °F 56% 29.96 in 10.0 mi North 12.7 mph - N/A   Overcast
2:55 AM 35.6 °F 28.6 °F 21.2 °F 56% 29.96 in 10.0 mi NNW 9.2 mph - N/A   Overcast
3:15 AM 35.6 °F 31.7 °F 21.2 °F 56% 29.96 in 10.0 mi NNW 4.6 mph - N/A   Overcast
3:35 AM 35.6 °F 30.7 °F 21.2 °F 56% 29.96 in 10.0 mi North 5.8 mph - N/A   Overcast
3:55 AM 35.6 °F 29.2 °F 21.2 °F 56% 29.96 in 10.0 mi North 8.1 mph - N/A   Overcast
4:15 AM 35.6 °F 31.7 °F 21.2 °F 56% 29.96 in 10.0 mi North 4.6 mph - N/A   Overcast
4:35 AM 35.6 °F 29.2 °F 21.2 °F 56% 29.96 in 10.0 mi North 8.1 mph - N/A   Overcast
4:56 AM 35.6 °F 30.7 °F 21.2 °F 56% 29.96 in 10.0 mi North 5.8 mph - N/A   Overcast
5:15 AM 35.6 °F 29.9 °F 21.2 °F 56% 29.96 in 10.0 mi NNW 6.9 mph - N/A   Overcast
5:35 AM 35.6 °F 29.9 °F 21.2 °F 56% 29.96 in 10.0 mi NNW 6.9 mph - N/A   Overcast
5:56 AM 35.6 °F 32.8 °F 19.4 °F 52% 29.96 in 10.0 mi North 3.5 mph - N/A   Overcast
6:15 AM 35.6 °F 32.8 °F 21.2 °F 56% 29.97 in 10.0 mi NNW 3.5 mph - N/A   Overcast
6:35 AM 35.6 °F 31.7 °F 21.2 °F 56% 29.97 in 10.0 mi NNW 4.6 mph - N/A   Overcast
6:55 AM 35.6 °F 31.7 °F 21.2 °F 56% 29.98 in 10.0 mi NNW 4.6 mph - N/A   Overcast
7:15 AM 35.6 °F 31.7 °F 21.2 °F 56% 29.99 in 10.0 mi NNW 4.6 mph - N/A   Overcast
7:35 AM 35.6 °F 30.7 °F 21.2 °F 56% 30.00 in 10.0 mi North 5.8 mph - N/A   Overcast
7:55 AM 35.6 °F 29.2 °F 21.2 °F 56% 30.00 in 10.0 mi North 8.1 mph - N/A   Overcast
8:15 AM 35.6 °F 29.2 °F 21.2 °F 56% 30.01 in 10.0 mi North 8.1 mph - N/A   Overcast
8:35 AM 35.6 °F 29.9 °F 21.2 °F 56% 30.01 in 10.0 mi NW 6.9 mph - N/A   Overcast
8:55 AM 35.6 °F 29.2 °F 23.0 °F 60% 30.01 in 10.0 mi North 8.1 mph - N/A   Overcast
9:15 AM 35.6 °F 31.7 °F 23.0 °F 60% 30.01 in 10.0 mi North 4.6 mph - N/A   Overcast
9:35 AM 35.6 °F 29.2 °F 23.0 °F 60% 30.01 in 10.0 mi North 8.1 mph - N/A   Overcast
9:55 AM 35.6 °F - 23.0 °F 60% 30.01 in 10.0 mi North - - N/A   Overcast
10:15 AM 35.6 °F - 23.0 °F 60% 30.01 in 10.0 mi North - - N/A   Mostly Cloudy
10:35 AM 37.4 °F - 21.2 °F 52% 30.01 in 10.0 mi North - - N/A   Overcast
10:55 AM 37.4 °F - 21.2 °F 52% 30.01 in 10.0 mi North - - N/A   Unknown
11:15 AM 37.4 °F - 21.2 °F 52% 30.01 in 10.0 mi North - - N/A   Overcast
11:35 AM 37.4 °F - 19.4 °F 48% 30.00 in - North - - N/A   Unknown
11:55 AM 37.4 °F - 19.4 °F 48% 29.99 in 10.0 mi North - - 0.15 in   Overcast
12:15 PM 37.4 °F - 17.6 °F 45% 29.98 in 10.0 mi North - - N/A   Overcast
12:35 PM 37.4 °F - 17.6 °F 45% 29.99 in 9.0 mi North - - N/A   Overcast
12:55 PM 37.4 °F - 17.6 °F 45% 29.99 in 6.0 mi North - - N/A   Overcast
1:15 PM 37.4 °F - 17.6 °F 45% 29.99 in 10.0 mi North - - N/A   Overcast
1:35 PM 37.4 °F - 15.8 °F 41% 29.99 in 10.0 mi North - - N/A   Overcast
1:55 PM 39.2 °F - 15.8 °F 39% 29.99 in 10.0 mi North - - N/A   Overcast
2:15 PM 37.4 °F - 15.8 °F 41% 30.00 in 10.0 mi North - - N/A   Scattered Clouds
2:35 PM 37.4 °F - 14.0 °F 38% 30.00 in 3.0 mi North - - N/A   Mostly Cloudy
2:55 PM 37.4 °F - 15.8 °F 41% 30.01 in - North - - N/A   Scattered Clouds
3:15 PM 37.4 °F - 14.0 °F 38% 30.01 in 8.0 mi North - - N/A   Mostly Cloudy
3:35 PM 37.4 °F 28.9 °F 14.0 °F 38% 30.02 in 10.0 mi NW 13.8 mph 20.7 mph N/A   Overcast
3:55 PM 37.4 °F 30.3 °F 15.8 °F 41% 30.02 in 10.0 mi NNW 10.4 mph 18.4 mph N/A   Overcast
4:15 PM 37.4 °F 28.5 °F 15.8 °F 41% 30.03 in 10.0 mi North 15.0 mph 18.4 mph N/A   Overcast
4:35 PM 35.6 °F 28.6 °F 15.8 °F 44% 30.04 in 10.0 mi NNW 9.2 mph - N/A   Overcast
4:55 PM 35.6 °F 28.0 °F 15.8 °F 44% 30.05 in 10.0 mi North 10.4 mph - N/A   Overcast
5:15 PM 35.6 °F 28.6 °F 15.8 °F 44% 30.06 in 10.0 mi North 9.2 mph - N/A   Mostly Cloudy
5:35 PM 35.6 °F 28.0 °F 15.8 °F 44% 30.07 in 10.0 mi North 10.4 mph - N/A   Partly Cloudy
5:55 PM 33.8 °F 30.8 °F 15.8 °F 48% 30.08 in 10.0 mi North 3.5 mph - N/A   Partly Cloudy
6:15 PM 33.8 °F 30.8 °F 15.8 °F 48% 30.08 in 10.0 mi NW 3.5 mph - N/A   Partly Cloudy
6:35 PM 30.2 °F - 17.6 °F 60% 30.08 in 10.0 mi Calm Calm - N/A   Clear
6:55 PM 28.4 °F - 17.6 °F 64% 30.09 in 10.0 mi Calm Calm - N/A   Clear
7:35 PM 26.6 °F - 17.6 °F 69% 30.10 in 10.0 mi Calm Calm - N/A   Clear
7:55 PM 26.6 °F - 17.6 °F 69% 30.11 in 10.0 mi Calm Calm - N/A   Mostly Cloudy
8:15 PM 28.4 °F - 17.6 °F 64% 30.12 in 10.0 mi Calm Calm - N/A   Overcast
8:35 PM 28.4 °F - 19.4 °F 69% 30.12 in 10.0 mi Calm Calm - N/A   Overcast
8:55 PM 26.6 °F 22.6 °F 19.4 °F 74% 30.12 in 10.0 mi SSW 3.5 mph - N/A   Overcast
9:15 PM 26.6 °F - 21.2 °F 80% 30.13 in 10.0 mi Calm Calm - N/A   Overcast
9:35 PM 26.6 °F - 19.4 °F 74% 30.13 in 10.0 mi Calm Calm - N/A   Overcast
9:55 PM 26.6 °F - 19.4 °F 74% 30.13 in 10.0 mi Calm Calm - N/A   Overcast
10:15 PM 26.6 °F - 19.4 °F 74% 30.13 in 10.0 mi Calm Calm - N/A   Mostly Cloudy
10:55 PM 24.8 °F - 19.4 °F 80% 30.12 in 10.0 mi Calm Calm - N/A   Clear
11:15 PM 24.8 °F 20.5 °F 19.4 °F 80% 30.13 in 10.0 mi South 3.5 mph - N/A   Clear
11:35 PM 24.8 °F 20.5 °F 19.4 °F 80% 30.13 in 10.0 mi SSW 3.5 mph - N/A   Clear
11:55 PM 24.8 °F 20.5 °F 19.4 °F 80% 30.13 in 10.0 mi SSW 3.5 mph - N/A   Clear